Погода в Янове

Россия / Алтайский край     53°53′59″N   85°12′55″E
темп.,
°C
ветер,
м/с
пор.,
м/с
влажн.,
%
обл.,
%
осадки,
мм/ч
давл.,
гПа
погр.,
м
24 июня, чт
чт2401:00+8в239756 0.9 101051
04:00+8всв299899 0.0 1006178
07:00+9в31294100 0.0 1004392
10:00+11вюв41194100 0.9 1003686
13:00+11ю4896100 1.9 1004618
16:00+14юз587335 1.3 10041542
19:00+13юз51464100 1.8 10051477
22:00+8вюв1194100 0.0 100610
25 июня, пт
пт2501:00+9в1286100 0.1 100555
04:00+8юв1198100 1.1 100443
07:00+9в2599100 3.7 1004179
10:00+10юв2396100 1.0 1005359
13:00+12в119174 1.9 1006529
16:00+12з239296 1.4 1008435
19:00+12з479691 2.6 1011601
22:00+9зсз279799 0.3 1013301
26 июня, сб
сб2601:00+8юз2397100 0.3 101494
04:00+8ююз1195100 0.0 101417
07:00+9ю129470 0.0 1015113
10:00+14ююз2365100 0.0 1014809
13:00+16зюз3458100 0.4 10141396
16:00+17з4454100 0.3 10131525
19:00+16з3460100 0.4 1013999
22:00+11зюз1188100 0.1 101511
27 июня, вс
вс2701:00+9юз1194100 0.1 101510
04:00+9ююз1194100 0.0 101512
07:00+11ююз1385100 0.0 1016139
10:00+14юз358498 0.5 1015316
13:00+18зюз455895 1.4 10151392
16:00+18зюз456268 0.6 10141278
19:00+16зюз25866 2.0 1014567
22:00+11юз11915 0.3 101510
28 июня, пн
пн2801:00+10ююв119312 0.3 101510
04:00+8юв119565 0.0 101510
07:00+11юв129489 0.0 101475
10:00+14ю2378100 0.0 1014267
13:00+17юз356498 0.0 1014637
16:00+20ююз335056 0.0 10131329
19:00+19юз226038 0.0 1013959
22:00+13всв118992 0.6 101410